• în România
  • Lista ţărilor
  • Pe 7 zile
  • Temperatura apei
  • Hartă satelitară
  • Meteo pe hartă
  • Widget-uri
  • user-avatar
    Intrare

    Meteo pe oră la Ploscha

    Astăzi, 24 Aprilie, Marţi

    Timp Temperatura Precipitaţii Vânt Presiune Umiditate
    00:00 +3°C° 0 mm 1 m/s 744 mmHg 63%
    01:00 +2°C° 0 mm 1 m/s 744 mmHg 64%
    02:00 +1°C° 0 mm 2 m/s 743 mmHg 66%
    03:00 +1°C° 0 mm 2 m/s 743 mmHg 67%
    04:00 +1°C° 0 mm 2 m/s 743 mmHg 68%
    05:00 +2°C° 0 mm 2 m/s 742 mmHg 69%
    06:00 +3°C° 0 mm 2 m/s 742 mmHg 65%
    07:00 +4°C° 0 mm 3 m/s 742 mmHg 61%
    08:00 +7°C° 0 mm 3 m/s 741 mmHg 58%
    09:00 +8°C° 0 mm 3 m/s 741 mmHg 57%
    10:00 +9°C° 0 mm 3 m/s 741 mmHg 57%
    11:00 +10°C° 0 mm 4 m/s 741 mmHg 57%
    12:00 +10°C° 0,1 mm 4 m/s 740 mmHg 62%
    13:00 +10°C° 0,1 mm 4 m/s 740 mmHg 67%
    14:00 +8°C° 0,1 mm 4 m/s 740 mmHg 72%
    15:00 +8°C° 0,1 mm 4 m/s 740 mmHg 74%
    16:00 +9°C° 0,1 mm 3 m/s 739 mmHg 77%
    17:00 +8°C° 0,1 mm 3 m/s 739 mmHg 80%
    18:00 +8°C° 0 mm 3 m/s 739 mmHg 84%
    19:00 +7°C° 0 mm 2 m/s 739 mmHg 88%
    20:00 +7°C° 0 mm 2 m/s 738 mmHg 92%
    21:00 +7°C° 0,1 mm 2 m/s 738 mmHg 92%
    22:00 +7°C° 0,1 mm 2 m/s 738 mmHg 93%
    23:00 +7°C° 0,1 mm 2 m/s 738 mmHg 93%

    Mâine, 25 Aprilie, Miercuri

    Timp Temperatura Precipitaţii Vânt Presiune Umiditate
    00:00 +7°C° 0,1 mm 2 m/s 738 mmHg 94%
    01:00 +7°C° 0,1 mm 2 m/s 738 mmHg 94%
    02:00 +6°C° 0,1 mm 2 m/s 738 mmHg 95%
    03:00 +6°C° 0 mm 2 m/s 738 mmHg 95%
    04:00 +5°C° 0 mm 2 m/s 737 mmHg 95%
    05:00 +4°C° 0 mm 2 m/s 737 mmHg 94%
    06:00 +4°C° 0,1 mm 3 m/s 737 mmHg 91%
    07:00 +5°C° 0,1 mm 3 m/s 737 mmHg 88%
    08:00 +6°C° 0,1 mm 4 m/s 737 mmHg 85%
    09:00 +7°C° 0,2 mm 4 m/s 737 mmHg 80%
    10:00 +8°C° 0,2 mm 4 m/s 737 mmHg 76%
    11:00 +9°C° 0,2 mm 5 m/s 737 mmHg 71%
    12:00 +10°C° 0,2 mm 5 m/s 737 mmHg 67%
    13:00 +10°C° 0,2 mm 5 m/s 736 mmHg 63%
    14:00 +10°C° 0,2 mm 5 m/s 736 mmHg 59%
    15:00 +10°C° 0,1 mm 5 m/s 736 mmHg 60%
    16:00 +10°C° 0,1 mm 5 m/s 736 mmHg 61%
    17:00 +10°C° 0,1 mm 4 m/s 736 mmHg 63%
    18:00 +8°C° 0 mm 4 m/s 736 mmHg 69%
    19:00 +8°C° 0 mm 3 m/s 737 mmHg 75%
    20:00 +6°C° 0 mm 2 m/s 737 mmHg 81%
    21:00 +6°C° 0 mm 2 m/s 737 mmHg 82%
    22:00 +5°C° 0 mm 2 m/s 737 mmHg 84%
    23:00 +5°C° 0 mm 2 m/s 737 mmHg 86%

    Poimâine, 26 Aprilie, Joi

    Timp Temperatura Precipitaţii Vânt Presiune Umiditate
    00:00 +5°C° 0 mm 2 m/s 737 mmHg 88%
    01:00 +5°C° 0 mm 2 m/s 737 mmHg 90%
    02:00 +4°C° 0 mm 2 m/s 736 mmHg 92%
    03:00 +4°C° 0,1 mm 2 m/s 736 mmHg 93%
    04:00 +4°C° 0,1 mm 2 m/s 736 mmHg 95%
    05:00 +4°C° 0,1 mm 2 m/s 736 mmHg 96%
    06:00 +5°C° 0,1 mm 2 m/s 736 mmHg 89%
    07:00 +7°C° 0,1 mm 2 m/s 736 mmHg 82%
    08:00 +8°C° 0,1 mm 2 m/s 736 mmHg 75%
    09:00 +10°C° 0 mm 3 m/s 736 mmHg 67%
    10:00 +11°C° 0 mm 3 m/s 736 mmHg 58%
    11:00 +12°C° 0 mm 4 m/s 736 mmHg 50%
    12:00 +13°C° 0,1 mm 4 m/s 737 mmHg 48%
    13:00 +13°C° 0,1 mm 4 m/s 737 mmHg 45%
    14:00 +14°C° 0,1 mm 4 m/s 737 mmHg 43%
    15:00 +14°C° 0,1 mm 4 m/s 737 mmHg 45%
    16:00 +13°C° 0,1 mm 4 m/s 737 mmHg 47%
    17:00 +13°C° 0,1 mm 4 m/s 738 mmHg 49%
    18:00 +11°C° 0,1 mm 3 m/s 738 mmHg 57%
    19:00 +10°C° 0,1 mm 3 m/s 738 mmHg 65%
    20:00 +8°C° 0,1 mm 2 m/s 739 mmHg 73%
    21:00 +7°C° 0 mm 2 m/s 739 mmHg 76%
    22:00 +7°C° 0 mm 2 m/s 739 mmHg 79%
    23:00 +6°C° 0 mm 2 m/s 739 mmHg 82%

    27 Aprilie, Vineri

    Timp Temperatura Precipitaţii Vânt Presiune Umiditate
    00:00 +6°C° 0 mm 2 m/s 739 mmHg 84%
    01:00 +6°C° 0 mm 2 m/s 739 mmHg 86%
    02:00 +5°C° 0 mm 2 m/s 740 mmHg 88%
    03:00 +5°C° 0 mm 2 m/s 740 mmHg 90%
    04:00 +5°C° 0 mm 2 m/s 740 mmHg 92%
    05:00 +5°C° 0 mm 2 m/s 740 mmHg 93%
    06:00 +5°C° 0 mm 3 m/s 740 mmHg 85%
    07:00 +8°C° 0 mm 3 m/s 741 mmHg 76%
    08:00 +9°C° 0 mm 3 m/s 741 mmHg 68%
    09:00 +10°C° 0,1 mm 4 m/s 741 mmHg 62%
    10:00 +11°C° 0,1 mm 4 m/s 741 mmHg 56%
    11:00 +12°C° 0,1 mm 5 m/s 741 mmHg 50%
    12:00 +12°C° 0,2 mm 5 m/s 741 mmHg 49%
    13:00 +13°C° 0,2 mm 5 m/s 742 mmHg 49%
    14:00 +13°C° 0,2 mm 5 m/s 742 mmHg 49%
    15:00 +12°C° 0,2 mm 5 m/s 742 mmHg 50%
    16:00 +12°C° 0,2 mm 4 m/s 742 mmHg 52%
    17:00 +12°C° 0,2 mm 4 m/s 743 mmHg 54%
    18:00 +10°C° 0,1 mm 3 m/s 743 mmHg 61%
    19:00 +9°C° 0,1 mm 3 m/s 744 mmHg 69%
    20:00 +7°C° 0,1 mm 2 m/s 744 mmHg 77%
    21:00 +7°C° 0 mm 2 m/s 745 mmHg 80%
    22:00 +6°C° 0 mm 2 m/s 745 mmHg 84%
    23:00 +5°C° 0 mm 2 m/s 746 mmHg 87%

    28 Aprilie, Sâmbătă

    Timp Temperatura Precipitaţii Vânt Presiune Umiditate
    00:00 +5°C° 0 mm 2 m/s 746 mmHg 90%
    01:00 +4°C° 0 mm 2 m/s 746 mmHg 92%
    02:00 +4°C° 0 mm 2 m/s 747 mmHg 94%
    03:00 +4°C° 0 mm 2 m/s 747 mmHg 95%
    04:00 +3°C° 0 mm 2 m/s 747 mmHg 95%
    05:00 +3°C° 0 mm 2 m/s 748 mmHg 96%
    06:00 +5°C° 0 mm 2 m/s 748 mmHg 88%
    07:00 +6°C° 0 mm 2 m/s 748 mmHg 79%
    08:00 +8°C° 0 mm 3 m/s 749 mmHg 71%
    09:00 +9°C° 0 mm 3 m/s 749 mmHg 63%
    10:00 +10°C° 0 mm 3 m/s 749 mmHg 56%
    11:00 +12°C° 0 mm 3 m/s 749 mmHg 48%
    12:00 +13°C° 0 mm 3 m/s 749 mmHg 45%
    13:00 +13°C° 0 mm 3 m/s 748 mmHg 42%
    14:00 +14°C° 0 mm 3 m/s 748 mmHg 39%
    15:00 +14°C° 0 mm 3 m/s 748 mmHg 41%
    16:00 +14°C° 0 mm 3 m/s 748 mmHg 44%
    17:00 +14°C° 0 mm 3 m/s 747 mmHg 47%
    18:00 +12°C° 0,1 mm 3 m/s 747 mmHg 53%
    19:00 +11°C° 0,1 mm 3 m/s 747 mmHg 59%
    20:00 +10°C° 0,1 mm 3 m/s 747 mmHg 65%
    21:00 +9°C° 0,3 mm 3 m/s 747 mmHg 70%
    22:00 +9°C° 0,3 mm 3 m/s 747 mmHg 75%
    23:00 +9°C° 0,3 mm 3 m/s 746 mmHg 79%

    29 Aprilie, Duminică

    Timp Temperatura Precipitaţii Vânt Presiune Umiditate
    00:00 +8°C° 0,4 mm 2 m/s 746 mmHg 84%
    01:00 +8°C° 0,4 mm 2 m/s 746 mmHg 89%
    02:00 +9°C° 0,4 mm 1 m/s 746 mmHg 94%
    03:00 +8°C° 0,1 mm 1 m/s 746 mmHg 94%
    04:00 +8°C° 0,1 mm 1 m/s 746 mmHg 95%
    05:00 +6°C° 0,1 mm 2 m/s 746 mmHg 96%
    06:00 +7°C° 0 mm 2 m/s 747 mmHg 90%
    07:00 +8°C° 0 mm 2 m/s 747 mmHg 84%
    08:00 +9°C° 0 mm 2 m/s 747 mmHg 78%
    09:00 +10°C° 0 mm 2 m/s 747 mmHg 69%
    10:00 +12°C° 0 mm 2 m/s 747 mmHg 60%
    11:00 +14°C° 0 mm 2 m/s 747 mmHg 51%
    12:00 +14°C° 0 mm 2 m/s 747 mmHg 47%
    13:00 +14°C° 0 mm 3 m/s 747 mmHg 43%
    14:00 +16°C° 0 mm 3 m/s 747 mmHg 39%
    15:00 +15°C° 0 mm 2 m/s 747 mmHg 40%
    16:00 +15°C° 0 mm 2 m/s 747 mmHg 41%
    17:00 +15°C° 0 mm 2 m/s 747 mmHg 42%
    18:00 +13°C° 0 mm 2 m/s 747 mmHg 49%
    19:00 +11°C° 0 mm 1 m/s 748 mmHg 57%
    20:00 +9°C° 0 mm 1 m/s 748 mmHg 65%
    21:00 +8°C° 0 mm 1 m/s 748 mmHg 67%
    22:00 +8°C° 0 mm 1 m/s 748 mmHg 70%
    23:00 +6°C° 0 mm 0 m/s 748 mmHg 72%
    Arată mai mult